EW1854 Weather Reports


time (UTC)temp
C
wind
direction
speed
KPH
gust
KPH
rain 1hr
cm
rain 24hr
cm
rain mn
cm
humidity
%
barometer
mb
20260506060115 16 317 0.0 4.8 0.00 0.61 0.38 44 1012.8
20260506051009 17 243 0.0 1.6 0.00 0.79 0.38 42 1012.4
20260506050513 17 286 0.0 4.8 0.00 0.79 0.38 42 1012.4
20260506045010 17 284 0.0 6.4 0.00 0.86 0.38 41 1012.2
20260506044509 17 281 0.0 9.7 0.00 0.86 0.38 41 1012.1
20260506044010 17 5 1.6 9.7 0.00 0.86 0.38 41 1012.1
20260506043510 18 244 0.0 8.0 0.00 0.86 0.38 42 1012.0
20260506043007 18 269 1.6 14.5 0.00 0.86 0.38 42 1012.0
20260506042507 18 300 1.6 22.5 0.00 0.86 0.38 45 1012.0
20260506042006 18 70 1.6 22.5 0.00 0.86 0.38 47 1012.0
20260506041507 18 322 1.6 14.5 0.00 0.86 0.38 48 1011.9
20260506041006 18 230 3.2 14.5 0.00 0.86 0.38 47 1011.8
20260506040506 18 302 1.6 6.4 0.00 0.86 0.38 47 1011.6
20260506040006 18 132 1.6 6.4 0.00 0.86 0.38 47 1011.5
20260506035506 17 302 0.0 4.8 0.00 0.86 0.38 47 1011.4
20260506035007 17 360 0.0 1.6 0.00 0.86 0.38 46 1011.2
20260506034506 17 281 0.0 1.6 0.00 0.86 0.38 44 1011.1
20260506034006 17 226 0.0 4.8 0.00 0.86 0.38 43 1011.1
20260506033505 18 223 0.0 4.8 0.00 0.86 0.38 42 1011.0
20260506033006 18 259 0.0 8.0 0.00 0.86 0.38 41 1011.0
20260506032505 18 236 0.0 8.0 0.00 0.86 0.38 41 1010.9
20260506032006 18 225 0.0 6.4 0.00 0.86 0.38 40 1010.8
20260506031505 18 235 0.0 6.4 0.00 0.86 0.38 39 1010.7
20260506031007 18 273 0.0 6.4 0.00 0.86 0.38 39 1010.6
20260506030508 18 193 0.0 11.3 0.00 0.86 0.38 38 1010.6
20260506030004 19 311 1.6 11.3 0.00 0.89 0.38 38 1010.6
20260506025504 19 248 1.6 9.7 0.00 0.89 0.38 37 1010.4
20260506025004 19 249 1.6 14.5 0.00 0.89 0.38 37 1010.5
20260506024504 19 245 1.6 14.5 0.00 0.89 0.38 36 1010.4
20260506024004 19 194 1.6 12.9 0.00 0.89 0.38 36 1010.4
20260506023504 19 285 1.6 12.9 0.00 0.89 0.38 36 1010.3
20260506023004 19 289 0.0 12.9 0.00 0.89 0.38 35 1010.3
20260506022504 20 269 0.0 12.9 0.00 0.89 0.38 34 1010.1
20260506022007 20 242 0.0 11.3 0.00 0.89 0.38 34 1010.1
20260506021506 20 240 0.0 11.3 0.00 0.89 0.38 33 1010.0
20260506021003 20 292 3.2 11.3 0.00 0.89 0.38 32 1009.9
20260506020503 20 329 1.6 19.3 0.00 0.89 0.38 32 1009.9
20260506020003 20 184 4.8 24.1 0.00 0.91 0.38 31 1009.7
20260506015503 20 267 9.7 24.1 0.00 0.91 0.38 31 1009.7
20260506015005 21 261 6.4 24.1 0.00 0.91 0.38 31 1009.7
20260506014502 21 315 9.7 24.1 0.00 0.91 0.38 30 1009.6
20260506014003 21 209 11.3 24.1 0.00 0.91 0.38 31 1009.7
20260506013502 21 293 4.8 22.5 0.00 0.91 0.38 32 1009.5
20260506013002 21 272 4.8 17.7 0.00 0.91 0.38 32 1009.6
20260506012502 21 319 8.0 20.9 0.00 0.91 0.38 32 1009.5
20260506012003 22 287 8.0 20.9 0.00 0.91 0.38 32 1009.4
20260506011502 22 246 4.8 22.5 0.00 0.91 0.38 31 1009.3
20260506011003 22 320 4.8 27.4 0.00 0.91 0.38 32 1009.2
20260506010503 22 238 6.4 27.4 0.00 0.91 0.38 32 1009.2
20260506010118 22 236 8.0 24.1 0.00 0.91 0.38 32 1009.1
20260506005601 22 240 6.4 24.1 0.00 0.91 0.38 30 1009.0
20260506005100 22 277 8.0 19.3 0.00 0.91 0.38 31 1009.0
20260506004604 22 298 4.8 24.1 0.00 0.91 0.38 30 1009.0
20260506004100 22 165 9.7 24.1 0.00 0.91 0.38 28 1008.9
20260506003600 23 278 11.3 24.1 0.00 0.91 0.38 28 1009.0
20260506003100 23 233 4.8 22.5 0.00 0.91 0.38 27 1008.8
20260506002559 23 245 8.0 27.4 0.00 0.91 0.38 28 1008.8
20260506002100 23 277 11.3 27.4 0.00 0.91 0.38 27 1008.8
20260506001559 23 265 9.7 17.7 0.00 0.91 0.38 27 1008.7
20260506001100 23 247 8.0 19.3 0.00 0.91 0.38 28 1008.7
20260506000559 23 300 4.8 19.3 0.00 0.91 0.38 28 1008.7
20260506000059 24 160 8.0 16.1 0.00 0.91 0.38 26 1008.8
20260505235558 24 325 4.8 19.3 0.00 0.91 0.38 25 1008.7
20260505235058 23 188 6.4 24.1 0.00 0.91 0.38 26 1008.6
20260505234609 23 238 9.7 29.0 0.00 0.91 0.38 25 1008.4
20260505234057 23 203 14.5 29.0 0.00 0.91 0.38 26 1008.4
20260505233557 23 236 8.0 19.3 0.00 0.91 0.38 24 1008.4
20260505233057 23 160 11.3 19.3 0.00 0.91 0.38 26 1008.5
20260505232600 24 245 11.3 25.7 0.00 0.91 0.38 25 1008.4
20260505232058 24 232 9.7 20.9 0.00 0.91 0.38 25 1008.5
20260505231557 24 299 9.7 24.1 0.00 0.91 0.38 25 1008.5
20260505231056 24 257 12.9 24.1 0.00 0.91 0.38 26 1008.5
20260505230556 24 194 16.1 24.1 0.00 0.91 0.38 23 1008.5
20260505230055 25 229 12.9 27.4 0.00 0.91 0.38 26 1008.5
20260505225555 25 330 14.5 25.7 0.00 0.91 0.38 26 1008.4
20260505225055 24 164 8.0 25.7 0.00 0.91 0.38 27 1008.5
20260505224554 24 215 9.7 17.7 0.00 0.91 0.38 29 1008.6
20260505224056 23 278 4.8 16.1 0.00 0.91 0.38 32 1008.7
20260505223552 23 183 4.8 17.7 0.00 0.91 0.38 31 1008.8
20260505223052 23 226 9.7 17.7 0.00 0.91 0.38 30 1008.9
20260505222552 23 245 6.4 17.7 0.00 0.91 0.38 30 1008.8
20260505222052 24 258 8.0 17.7 0.00 0.91 0.38 30 1009.0
20260505221552 24 240 3.2 19.3 0.00 0.91 0.38 32 1008.9
20260505221057 23 159 6.4 22.5 0.00 0.91 0.38 31 1009.0
20260505220550 23 252 11.3 22.5 0.00 0.91 0.38 30 1009.0
20260505220050 23 192 8.0 22.5 0.00 0.91 0.38 30 1009.1
20260505215550 23 259 9.7 27.4 0.00 0.91 0.38 29 1009.2
20260505215054 23 230 14.5 27.4 0.00 0.91 0.38 30 1009.1
20260505214604 23 188 11.3 29.0 0.00 0.91 0.38 30 1009.2
20260505214050 23 233 12.9 29.0 0.00 0.91 0.38 31 1009.3
20260505213551 22 223 12.9 32.2 0.00 0.91 0.38 32 1009.3
20260505213059 23 210 12.9 32.2 0.00 0.91 0.38 30 1009.4
20260505212549 23 177 16.1 32.2 0.00 0.91 0.38 26 1009.4
20260505212049 23 247 14.5 25.7 0.00 0.91 0.38 29 1009.4
20260505211549 23 248 11.3 32.2 0.00 0.91 0.38 30 1009.5
20260505211049 23 246 12.9 32.2 0.00 0.91 0.38 30 1009.5
20260505210549 23 214 17.7 32.2 0.00 0.91 0.38 29 1009.6
20260505210055 23 235 12.9 27.4 0.00 0.91 0.38 26 1009.6
20260505205548 23 268 12.9 27.4 0.00 0.91 0.38 28 1009.6
20260505205051 23 221 17.7 30.6 0.00 0.91 0.38 28 1009.6
20260505204556 23 284 17.7 35.4 0.00 0.91 0.38 27 1009.6
20260505204047 23 244 19.3 35.4 0.00 0.91 0.38 27 1009.7
20260505203547 23 245 20.9 37.0 0.00 0.91 0.38 25 1009.6
20260505203053 23 267 12.9 33.8 0.00 0.91 0.38 28 1009.5
20260505202547 23 217 19.3 35.4 0.00 0.91 0.38 25 1009.7
20260505202046 23 209 16.1 35.4 0.00 0.91 0.38 29 1009.6
20260505201547 24 275 14.5 32.2 0.00 0.91 0.38 30 1009.7
20260505201044 23 224 9.7 32.2 0.00 0.91 0.38 33 1009.7
20260505200543 23 255 14.5 37.0 0.00 0.91 0.38 34 1009.8
20260505200057 23 242 16.1 43.5 0.00 0.91 0.38 36 1009.6
20260505195540 23 258 16.1 43.5 0.00 0.91 0.38 36 1009.8
20260505195040 23 261 9.7 33.8 0.00 0.91 0.38 35 1009.7
20260505194545 22 192 17.7 33.8 0.00 0.91 0.38 39 1009.9
20260505194039 22 175 11.3 22.5 0.00 0.91 0.38 44 1009.9
20260505193536 21 238 8.0 19.3 0.00 0.91 0.38 52 1009.8
20260505193036 21 241 1.6 8.0 0.00 0.91 0.38 52 1009.9
20260505192535 21 108 0.0 3.2 0.00 0.91 0.38 51 1009.9
20260505192035 21 149 0.0 9.7 0.00 0.91 0.38 52 1009.9
20260505191535 21 243 3.2 9.7 0.00 0.91 0.38 50 1010.0
20260505191035 21 111 0.0 6.4 0.00 0.91 0.38 52 1010.0
20260505190534 21 271 1.6 6.4 0.00 0.91 0.38 52 1010.1
20260505190036 21 26 0.0 11.3 0.00 0.91 0.38 51 1010.1
20260505185534 20 205 1.6 11.3 0.00 0.91 0.38 52 1010.3
20260505185034 21 247 3.2 14.5 0.00 0.91 0.38 51 1010.4
20260505184534 21 116 6.4 14.5 0.00 0.91 0.38 53 1010.4
20260505184032 21 108 3.2 9.7 0.00 0.91 0.38 52 1010.6
20260505183532 20 113 0.0 6.4 0.00 0.91 0.38 54 1010.7
20260505183030 20 82 1.6 8.0 0.00 0.91 0.38 55 1010.6
20260505182530 19 62 3.2 9.7 0.00 0.91 0.38 56 1010.8
20260505182031 19 28 6.4 9.7 0.00 0.91 0.38 55 1010.9
20260505181531 20 329 0.0 6.4 0.00 0.91 0.38 56 1011.0
20260505181033 20 240 1.6 6.4 0.00 0.91 0.38 56 1011.0
20260505180530 20 300 0.0 6.4 0.00 0.91 0.38 56 1011.0
20260505180051 20 327 0.0 6.4 0.00 0.91 0.38 58 1011.0
20260505175530 20 226 0.0 4.8 0.00 0.91 0.38 58 1011.0
20260505175032 20 267 0.0 4.8 0.00 0.91 0.38 58 1011.1
20260505174548 20 232 0.0 3.2 0.00 0.91 0.38 57 1011.1
20260505174029 19 227 0.0 8.0 0.00 0.91 0.38 60 1011.1
20260505173531 20 271 1.6 8.0 0.00 0.91 0.38 58 1011.2
20260505173033 20 256 0.0 4.8 0.00 0.91 0.38 58 1011.1
20260505172526 19 195 0.0 8.0 0.00 0.91 0.38 60 1011.1
20260505172026 19 191 3.2 8.0 0.00 0.91 0.38 60 1011.2
20260505171526 19 155 0.0 8.0 0.00 0.91 0.38 60 1011.2
20260505171024 19 138 0.0 1.6 0.00 0.91 0.38 63 1011.1
20260505170523 18 93 0.0 3.2 0.00 0.91 0.38 64 1011.1
20260505170023 18 94 0.0 6.4 0.00 0.91 0.38 64 1011.0
20260505165522 18 51 1.6 6.4 0.00 0.91 0.38 64 1011.0
20260505165024 18 55 1.6 4.8 0.00 0.91 0.38 64 1010.9
20260505164522 18 86 0.0 3.2 0.00 0.91 0.38 64 1010.9
20260505164020 18 28 0.0 4.8 0.00 0.91 0.38 71 1011.0
20260505163520 17 92 0.0 4.8 0.00 0.91 0.38 71 1010.9
20260505163021 18 85 0.0 0.0 0.00 0.91 0.38 72 1011.0
20260505162518 17 194 0.0 0.0 0.00 0.91 0.38 74 1011.1
20260505162018 17 194 0.0 0.0 0.00 0.91 0.38 75 1011.1
20260505161516 17 196 0.0 0.0 0.00 0.91 0.38 75 1011.2
20260505161019 17 234 0.0 0.0 0.00 0.91 0.38 75 1011.2
20260505160516 17 234 0.0 0.0 0.00 0.91 0.38 75 1011.1
20260505153012 16 315 0.0 0.0 0.00 0.91 0.38 80 1010.8
20260505152512 16 315 0.0 0.0 0.00 0.91 0.38 80 1010.7
20260505152011 16 273 0.0 1.6 0.00 0.91 0.38 81 1010.7
20260505151513 16 257 0.0 3.2 0.00 0.91 0.38 82 1010.7
20260505151010 16 290 0.0 3.2 0.00 0.91 0.38 82 1010.8
20260505150513 16 242 0.0 1.6 0.00 0.91 0.38 82 1010.8
20260505140503 15 90 0.0 0.0 0.00 0.91 0.38 81 1010.3
20260505124557 14 117 0.0 4.8 0.03 0.91 0.38 88 1009.4
20260505124055 14 142 1.6 4.8 0.03 0.91 0.38 88 1009.3
20260505123555 14 146 1.6 4.8 0.03 0.91 0.38 88 1009.4
20260505123103 14 121 0.0 1.6 0.03 0.91 0.38 87 1009.2
20260505122555 14 136 0.0 0.0 0.03 0.91 0.38 87 1009.1
20260505122055 14 129 0.0 0.0 0.03 0.91 0.38 86 1009.3
20260505121557 14 129 0.0 0.0 0.03 0.91 0.38 86 1009.3
20260505121055 14 129 0.0 0.0 0.03 0.91 0.38 85 1009.0
20260505120555 14 128 0.0 0.0 0.03 0.91 0.38 85 1008.9
20260505120055 14 128 0.0 0.0 0.03 0.91 0.38 84 1008.9
20260505115554 14 128 0.0 3.2 0.05 0.91 0.38 84 1009.0
20260505115054 14 128 0.0 3.2 0.05 0.91 0.38 83 1008.7
20260505114554 14 123 0.0 6.4 0.03 0.89 0.36 83 1008.7
20260505114054 14 105 0.0 6.4 0.03 0.89 0.36 83 1008.7
20260505113553 14 94 1.6 6.4 0.03 0.89 0.36 84 1008.8
20260505113108 14 91 1.6 6.4 0.03 0.89 0.36 85 1009.1
20260505112553 14 163 1.6 6.4 0.03 0.89 0.36 84 1009.4
20260505112052 14 69 1.6 8.0 0.03 0.89 0.36 83 1009.1
20260505111552 14 130 0.0 8.0 0.05 0.89 0.36 85 1009.2
20260505111052 14 90 0.0 12.9 0.05 0.89 0.36 85 1009.1
20260505110551 14 121 3.2 12.9 0.08 0.89 0.36 85 1009.0
20260505102048 14 103 1.6 11.3 0.10 0.86 0.33 86 1009.7
20260505101547 14 121 1.6 16.1 0.10 0.84 0.30 86 1010.1
20260505101047 14 100 4.8 19.3 0.10 0.84 0.30 86 1010.3
20260505100548 14 93 9.7 19.3 0.08 0.81 0.28 86 1010.4
20260505100050 14 109 9.7 17.7 0.08 0.81 0.28 86 1010.3
20260505095545 14 85 9.7 19.3 0.08 0.81 0.28 86 1010.3
20260505095044 14 78 11.3 19.3 0.08 0.81 0.28 86 1010.4
20260505094545 14 98 6.4 19.3 0.10 0.81 0.28 86 1010.4
20260505094043 14 138 11.3 19.3 0.10 0.81 0.28 86 1010.3
20260505093543 14 81 11.3 19.3 0.10 0.81 0.28 86 1010.4
20260505093043 14 130 8.0 22.5 0.08 0.79 0.25 86 1010.7
20260505092542 14 130 11.3 22.5 0.08 0.79 0.25 86 1010.7
20260505092042 14 136 9.7 20.9 0.08 0.76 0.23 86 1010.6
20260505091548 15 126 4.8 19.3 0.05 0.71 0.20 86 1010.7
20260505091040 15 129 8.0 20.9 0.05 0.71 0.20 86 1010.5
20260505090540 15 94 9.7 20.9 0.05 0.71 0.20 85 1010.5
20260505090043 15 162 11.3 20.9 0.08 0.71 0.20 84 1010.5
20260505085541 15 136 12.9 22.5 0.08 0.71 0.20 83 1010.5
20260505085038 15 57 12.9 25.7 0.10 0.71 0.20 83 1010.7
20260505084536 15 105 14.5 25.7 0.10 0.71 0.18 84 1010.9
20260505084036 15 116 9.7 17.7 0.10 0.71 0.18 85 1010.9
20260505083533 15 108 8.0 17.7 0.13 0.71 0.18 85 1011.1
20260505083034 15 93 8.0 16.1 0.13 0.71 0.18 84 1011.3
20260505082531 15 91 9.7 17.7 0.15 0.71 0.18 84 1011.7
20260505082030 15 94 8.0 17.7 0.13 0.69 0.15 84 1011.7
20260505081535 15 93 4.8 12.9 0.15 0.69 0.15 85 1011.8
20260505081027 15 116 3.2 9.7 0.15 0.69 0.15 85 1011.8
20260505080527 15 109 3.2 12.9 0.15 0.69 0.15 85 1012.0
20260505080031 15 83 6.4 12.9 0.13 0.66 0.13 85 1012.1
20260505075524 15 93 3.2 11.3 0.13 0.64 0.10 85 1012.2
20260505075025 15 123 0.0 11.3 0.13 0.64 0.10 84 1012.4
20260505074524 15 102 4.8 11.3 0.13 0.61 0.08 84 1012.3
20260505074024 15 105 3.2 9.7 0.10 0.58 0.05 84 1012.5
20260505073625 15 89 3.2 8.0 0.13 0.58 0.05 86 1012.4
20260505073023 15 91 1.6 4.8 0.15 0.58 0.05 86 1012.6
20260505072524 15 113 0.0 4.8 0.13 0.56 0.03 86 1012.5
20260505072021 15 110 0.0 6.4 0.15 0.56 0.03 85 1012.3
20260505071520 15 146 1.6 6.4 0.15 0.53 0.00 85 1012.5
20260505071020 15 105 1.6 4.8 0.18 0.53 0.00 85 1012.3
20260505070523 15 113 0.0 4.8 0.20 0.53 0.00 85 1012.3
20260505070018 15 100 1.6 4.8 0.23 0.53 0.00 85 1012.2
20260505065520 15 103 0.0 4.8 0.20 0.51 0.51 85 1012.1
20260505065016 15 92 0.0 3.2 0.23 0.51 0.51 85 1012.2
20260505064516 15 105 0.0 4.8 0.20 0.48 0.48 84 1012.2
20260505064016 15 105 0.0 8.0 0.25 0.48 0.48 84 1012.2
20260505063516 15 73 3.2 8.0 0.23 0.46 0.46 83 1012.0
20260505063017 15 68 0.0 3.2 0.23 0.43 0.43 83 1012.0
20260505062521 15 92 0.0 6.4 0.20 0.41 0.41 82 1012.0
20260505062015 15 84 1.6 8.0 0.23 0.41 0.41 82 1012.1
20260505061514 15 86 3.2 12.9 0.23 0.38 0.38 81 1012.1
20260505061014 15 88 3.2 12.9 0.20 0.36 0.36 81 1012.1
20260505060516 15 74 4.8 14.5 0.18 0.33 0.33 78 1012.1